Time,TemperatureF,DewpointF,PressureIn,WindDirection,WindDirectionDegrees,WindSpeedMPH,WindSpeedGustMPH,Humidity,HourlyPrecipIn,Conditions,Clouds,dailyrainin,SoftwareType,DateUTC
2013-12-16 00:00:00,20.9,18.2,29.76,NNW,340,3.0,15.0,89,0.00,,---,0.00,VWS V14.01,2013-12-16 05:00:00,
2013-12-16 00:01:00,20.9,18.2,29.76,NNW,340,3.0,15.0,89,0.00,,---,0.00,VWS V14.01,2013-12-16 05:01:00,
2013-12-16 00:05:00,20.4,17.9,29.76,NW,324,3.0,9.0,90,0.00,,---,0.00,VWS V14.01,2013-12-16 05:05:00,
2013-12-16 00:06:00,20.4,17.9,29.76,NW,324,3.0,9.0,90,0.00,,---,0.00,VWS V14.01,2013-12-16 05:06:00,
2013-12-16 00:10:00,20.1,17.9,29.77,WNW,300,6.0,12.0,91,0.00,,---,0.00,VWS V14.01,2013-12-16 05:10:00,
2013-12-16 00:11:00,20.1,17.9,29.77,WNW,300,6.0,12.0,91,0.00,,---,0.00,VWS V14.01,2013-12-16 05:11:00,
2013-12-16 00:15:00,19.9,18.0,29.77,NW,311,7.0,16.0,92,0.00,,---,0.00,VWS V14.01,2013-12-16 05:15:00,
2013-12-16 00:16:00,19.9,18.0,29.77,NW,311,7.0,16.0,92,0.00,,---,0.00,VWS V14.01,2013-12-16 05:16:00,
2013-12-16 00:20:00,19.7,18.0,29.76,NW,309,12.0,22.0,93,0.00,,---,0.00,VWS V14.01,2013-12-16 05:20:00,
2013-12-16 00:21:00,19.7,18.0,29.76,NW,309,12.0,22.0,93,0.00,,---,0.00,VWS V14.01,2013-12-16 05:21:00,
2013-12-16 00:25:00,19.6,17.9,29.76,WNW,300,10.0,18.0,93,0.00,,---,0.00,VWS V14.01,2013-12-16 05:25:00,
2013-12-16 00:26:00,19.6,17.9,29.76,WNW,300,10.0,18.0,93,0.00,,---,0.00,VWS V14.01,2013-12-16 05:26:00,
2013-12-16 00:30:00,19.5,17.8,29.76,NW,305,10.0,14.0,93,0.00,,---,0.00,VWS V14.01,2013-12-16 05:30:00,
2013-12-16 00:35:00,19.4,17.7,29.76,WNW,291,7.0,16.0,93,0.00,,---,0.00,VWS V14.01,2013-12-16 05:35:00,
2013-12-16 00:36:00,19.4,17.7,29.76,WNW,291,7.0,16.0,93,0.00,,---,0.00,VWS V14.01,2013-12-16 05:36:00,
2013-12-16 00:40:00,19.4,17.7,29.76,WNW,302,4.0,16.0,93,0.00,,---,0.00,VWS V14.01,2013-12-16 05:40:00,
2013-12-16 00:41:00,19.4,17.7,29.76,WNW,302,4.0,16.0,93,0.00,,---,0.00,VWS V14.01,2013-12-16 05:41:00,
2013-12-16 00:45:00,19.3,17.6,29.76,WNW,293,8.0,12.0,93,0.00,,---,0.00,VWS V14.01,2013-12-16 05:45:00,
2013-12-16 00:46:00,19.3,17.6,29.76,WNW,293,8.0,12.0,93,0.00,,---,0.00,VWS V14.01,2013-12-16 05:46:00,
2013-12-16 00:50:00,19.3,17.6,29.77,WNW,295,11.0,13.0,93,0.00,,---,0.00,VWS V14.01,2013-12-16 05:50:00,
2013-12-16 00:51:00,19.3,17.6,29.77,WNW,295,11.0,13.0,93,0.00,,---,0.00,VWS V14.01,2013-12-16 05:51:00,
2013-12-16 00:55:00,19.2,17.5,29.77,WNW,300,12.0,17.0,93,0.00,,---,0.00,VWS V14.01,2013-12-16 05:55:00,
2013-12-16 00:56:00,19.2,17.5,29.77,WNW,300,12.0,17.0,93,0.00,,---,0.00,VWS V14.01,2013-12-16 05:56:00,
2013-12-16 01:00:00,19.2,17.5,29.77,WNW,298,12.0,17.0,93,0.00,,---,0.00,VWS V14.01,2013-12-16 06:00:00,
2013-12-16 01:01:00,19.2,17.5,29.77,WNW,298,12.0,17.0,93,0.00,,---,0.00,VWS V14.01,2013-12-16 06:01:00,
2013-12-16 01:05:00,19.2,17.5,29.77,WNW,294,6.0,11.0,93,0.00,,---,0.00,VWS V14.01,2013-12-16 06:05:00,
2013-12-16 01:06:00,19.2,17.5,29.77,WNW,294,6.0,11.0,93,0.00,,---,0.00,VWS V14.01,2013-12-16 06:06:00,
2013-12-16 01:10:00,19.1,17.2,29.78,WNW,293,7.0,10.0,92,0.00,,---,0.00,VWS V14.01,2013-12-16 06:10:00,
2013-12-16 01:11:00,19.1,17.2,29.78,WNW,293,7.0,10.0,92,0.00,,---,0.00,VWS V14.01,2013-12-16 06:11:00,
2013-12-16 01:15:00,19.1,17.2,29.78,WNW,286,5.0,15.0,92,0.00,,---,0.00,VWS V14.01,2013-12-16 06:15:00,
2013-12-16 01:16:00,19.1,17.2,29.78,WNW,286,5.0,15.0,92,0.00,,---,0.00,VWS V14.01,2013-12-16 06:16:00,
2013-12-16 01:20:00,19.1,16.9,29.78,NW,314,8.0,17.0,91,0.00,,---,0.00,VWS V14.01,2013-12-16 06:20:00,
2013-12-16 01:21:00,19.1,16.9,29.78,NW,314,8.0,17.0,91,0.00,,---,0.00,VWS V14.01,2013-12-16 06:21:00,
2013-12-16 01:25:00,19.0,16.8,29.78,NW,304,5.0,16.0,91,0.00,,---,0.00,VWS V14.01,2013-12-16 06:25:00,
2013-12-16 01:26:00,19.0,16.8,29.78,NW,304,5.0,16.0,91,0.00,,---,0.00,VWS V14.01,2013-12-16 06:26:00,
2013-12-16 01:30:00,18.9,16.5,29.79,WNW,288,11.0,15.0,90,0.00,,---,0.00,VWS V14.01,2013-12-16 06:30:00,
2013-12-16 01:31:00,18.9,16.5,29.79,WNW,288,11.0,15.0,90,0.00,,---,0.00,VWS V14.01,2013-12-16 06:31:00,
2013-12-16 01:35:00,18.8,16.4,29.79,NW,308,7.0,14.0,90,0.00,,---,0.00,VWS V14.01,2013-12-16 06:35:00,
2013-12-16 01:36:00,18.8,16.4,29.79,NW,308,7.0,14.0,90,0.00,,---,0.00,VWS V14.01,2013-12-16 06:36:00,
2013-12-16 01:40:00,18.6,15.9,29.80,NW,310,15.0,18.0,89,0.00,,---,0.00,VWS V14.01,2013-12-16 06:40:00,
2013-12-16 01:41:00,18.6,15.9,29.80,NW,310,15.0,18.0,89,0.00,,---,0.00,VWS V14.01,2013-12-16 06:41:00,
2013-12-16 01:45:00,18.5,15.0,29.80,WSW,257,12.0,19.0,86,0.00,,---,0.00,VWS V14.01,2013-12-16 06:45:00,
2013-12-16 01:46:00,18.5,15.0,29.80,WSW,257,12.0,19.0,86,0.00,,---,0.00,VWS V14.01,2013-12-16 06:46:00,
2013-12-16 01:50:00,18.2,14.7,29.81,WNW,302,10.0,19.0,86,0.00,,---,0.00,VWS V14.01,2013-12-16 06:50:00,
2013-12-16 01:51:00,18.2,14.7,29.81,WNW,302,10.0,19.0,86,0.00,,---,0.00,VWS V14.01,2013-12-16 06:51:00,
2013-12-16 01:55:00,17.8,14.1,29.81,NW,305,12.0,16.0,85,0.00,,---,0.00,VWS V14.01,2013-12-16 06:55:00,
2013-12-16 01:56:00,17.8,14.1,29.81,NW,305,12.0,16.0,85,0.00,,---,0.00,VWS V14.01,2013-12-16 06:56:00,
2013-12-16 02:00:00,17.4,13.4,29.80,WNW,292,22.0,27.0,84,0.00,,---,0.00,VWS V14.01,2013-12-16 07:00:00,
2013-12-16 02:01:00,17.4,13.4,29.80,WNW,292,22.0,27.0,84,0.00,,---,0.00,VWS V14.01,2013-12-16 07:01:00,
2013-12-16 02:05:00,17.1,12.8,29.81,WNW,294,19.0,25.0,83,0.00,,---,0.00,VWS V14.01,2013-12-16 07:05:00,
2013-12-16 02:06:00,17.1,12.8,29.81,WNW,294,19.0,25.0,83,0.00,,---,0.00,VWS V14.01,2013-12-16 07:06:00,
2013-12-16 02:10:00,16.9,12.6,29.81,NW,305,6.0,27.0,83,0.00,,---,0.00,VWS V14.01,2013-12-16 07:10:00,
2013-12-16 02:11:00,16.9,12.6,29.81,NW,305,6.0,27.0,83,0.00,,---,0.00,VWS V14.01,2013-12-16 07:11:00,
2013-12-16 02:15:00,16.7,12.2,29.82,WNW,298,15.0,27.0,82,0.00,,---,0.00,VWS V14.01,2013-12-16 07:15:00,
2013-12-16 02:16:00,16.7,12.2,29.82,WNW,298,15.0,27.0,82,0.00,,---,0.00,VWS V14.01,2013-12-16 07:16:00,
2013-12-16 02:20:00,16.7,11.6,29.82,NW,305,14.0,25.0,80,0.00,,---,0.00,VWS V14.01,2013-12-16 07:20:00,
2013-12-16 02:21:00,16.7,11.6,29.82,NW,305,14.0,25.0,80,0.00,,---,0.00,VWS V14.01,2013-12-16 07:21:00,
2013-12-16 02:25:00,16.8,11.1,29.82,WNW,283,10.0,20.0,78,0.00,,---,0.00,VWS V14.01,2013-12-16 07:25:00,
2013-12-16 02:26:00,16.8,11.1,29.82,WNW,283,10.0,20.0,78,0.00,,---,0.00,VWS V14.01,2013-12-16 07:26:00,
2013-12-16 02:30:00,16.8,10.3,29.82,West,274,6.0,25.0,75,0.00,,---,0.00,VWS V14.01,2013-12-16 07:30:00,
2013-12-16 02:31:00,16.8,10.3,29.82,West,274,6.0,25.0,75,0.00,,---,0.00,VWS V14.01,2013-12-16 07:31:00,
2013-12-16 02:35:00,16.7,9.9,29.83,WNW,288,17.0,17.0,74,0.00,,---,0.00,VWS V14.01,2013-12-16 07:35:00,
2013-12-16 02:36:00,16.7,9.9,29.83,WNW,288,17.0,17.0,74,0.00,,---,0.00,VWS V14.01,2013-12-16 07:36:00,
2013-12-16 02:40:00,16.8,9.7,29.83,West,274,12.0,22.0,73,0.00,,---,0.00,VWS V14.01,2013-12-16 07:40:00,
2013-12-16 02:41:00,16.8,9.7,29.83,West,274,12.0,22.0,73,0.00,,---,0.00,VWS V14.01,2013-12-16 07:41:00,
2013-12-16 02:45:00,16.8,9.7,29.83,WNW,295,11.0,16.0,73,0.00,,---,0.00,VWS V14.01,2013-12-16 07:45:00,
2013-12-16 02:50:00,16.8,9.4,29.83,WNW,297,12.0,19.0,72,0.00,,---,0.00,VWS V14.01,2013-12-16 07:50:00,
2013-12-16 02:51:00,16.8,9.4,29.83,WNW,297,12.0,19.0,72,0.00,,---,0.00,VWS V14.01,2013-12-16 07:51:00,
2013-12-16 02:55:00,16.5,9.1,29.83,WNW,285,11.0,15.0,72,0.00,,---,0.00,VWS V14.01,2013-12-16 07:55:00,
2013-12-16 02:56:00,16.5,9.1,29.83,WNW,285,11.0,15.0,72,0.00,,---,0.00,VWS V14.01,2013-12-16 07:56:00,
2013-12-16 03:00:00,16.3,8.9,29.83,WNW,301,7.0,16.0,72,0.00,,---,0.00,VWS V14.01,2013-12-16 08:00:00,
2013-12-16 03:01:00,16.3,8.9,29.83,WNW,301,7.0,16.0,72,0.00,,---,0.00,VWS V14.01,2013-12-16 08:01:00,
2013-12-16 03:05:00,16.0,8.6,29.83,WNW,300,5.0,11.0,72,0.00,,---,0.00,VWS V14.01,2013-12-16 08:05:00,
2013-12-16 03:10:00,15.9,8.5,29.84,WNW,283,6.0,9.0,72,0.00,,---,0.00,VWS V14.01,2013-12-16 08:10:00,
2013-12-16 03:11:00,15.9,8.5,29.84,WNW,283,6.0,9.0,72,0.00,,---,0.00,VWS V14.01,2013-12-16 08:11:00,
2013-12-16 03:15:00,15.8,8.4,29.84,West,276,9.0,10.0,72,0.00,,---,0.00,VWS V14.01,2013-12-16 08:15:00,
2013-12-16 03:16:00,15.8,8.4,29.84,West,276,9.0,10.0,72,0.00,,---,0.00,VWS V14.01,2013-12-16 08:16:00,
2013-12-16 03:20:00,15.8,8.4,29.85,WNW,297,7.0,13.0,72,0.00,,---,0.00,VWS V14.01,2013-12-16 08:20:00,
2013-12-16 03:21:00,15.8,8.4,29.85,WNW,297,7.0,13.0,72,0.00,,---,0.00,VWS V14.01,2013-12-16 08:21:00,
2013-12-16 03:25:00,15.6,8.2,29.84,West,267,4.0,8.0,72,0.00,,---,0.00,VWS V14.01,2013-12-16 08:25:00,
2013-12-16 03:26:00,15.6,8.2,29.84,West,267,4.0,8.0,72,0.00,,---,0.00,VWS V14.01,2013-12-16 08:26:00,
2013-12-16 03:30:00,15.5,8.1,29.84,WNW,301,3.0,9.0,72,0.00,,---,0.00,VWS V14.01,2013-12-16 08:30:00,
2013-12-16 03:31:00,15.5,8.1,29.84,WNW,301,3.0,9.0,72,0.00,,---,0.00,VWS V14.01,2013-12-16 08:31:00,
2013-12-16 03:35:00,15.2,7.5,29.85,WNW,284,3.0,6.0,71,0.00,,---,0.00,VWS V14.01,2013-12-16 08:35:00,
2013-12-16 03:36:00,15.2,7.5,29.85,WNW,284,3.0,6.0,71,0.00,,---,0.00,VWS V14.01,2013-12-16 08:36:00,
2013-12-16 03:40:00,14.8,7.7,29.85,WNW,292,3.0,7.0,73,0.00,,---,0.00,VWS V14.01,2013-12-16 08:40:00,
2013-12-16 03:45:00,14.9,8.1,29.86,WNW,294,4.0,9.0,74,0.00,,---,0.00,VWS V14.01,2013-12-16 08:45:00,
2013-12-16 03:46:00,14.9,8.1,29.86,WNW,294,4.0,9.0,74,0.00,,---,0.00,VWS V14.01,2013-12-16 08:46:00,
2013-12-16 03:50:00,14.8,8.0,29.85,WNW,293,2.0,7.0,74,0.00,,---,0.00,VWS V14.01,2013-12-16 08:50:00,
2013-12-16 03:51:00,14.8,8.0,29.85,WNW,293,2.0,7.0,74,0.00,,---,0.00,VWS V14.01,2013-12-16 08:51:00,
2013-12-16 03:55:00,14.8,8.0,29.86,WNW,291,7.0,11.0,74,0.00,,---,0.00,VWS V14.01,2013-12-16 08:55:00,
2013-12-16 03:56:00,14.8,8.0,29.86,WNW,291,7.0,11.0,74,0.00,,---,0.00,VWS V14.01,2013-12-16 08:56:00,
2013-12-16 04:00:00,14.7,7.9,29.86,WNW,288,5.0,10.0,74,0.00,,---,0.00,VWS V14.01,2013-12-16 09:00:00,
2013-12-16 04:01:00,14.7,7.9,29.86,WNW,288,5.0,10.0,74,0.00,,---,0.00,VWS V14.01,2013-12-16 09:01:00,
2013-12-16 04:05:00,14.7,8.2,29.86,West,271,11.0,11.0,75,0.00,,---,0.00,VWS V14.01,2013-12-16 09:05:00,
2013-12-16 04:06:00,14.7,8.2,29.86,West,271,11.0,11.0,75,0.00,,---,0.00,VWS V14.01,2013-12-16 09:06:00,
2013-12-16 04:10:00,14.5,8.0,29.86,WNW,288,6.0,11.0,75,0.00,,---,0.00,VWS V14.01,2013-12-16 09:10:00,
2013-12-16 04:11:00,14.5,8.0,29.86,WNW,288,6.0,11.0,75,0.00,,---,0.00,VWS V14.01,2013-12-16 09:11:00,
2013-12-16 04:15:00,14.5,8.0,29.86,WNW,295,10.0,14.0,75,0.00,,---,0.00,VWS V14.01,2013-12-16 09:15:00,
2013-12-16 04:16:00,14.5,8.0,29.86,WNW,295,10.0,14.0,75,0.00,,---,0.00,VWS V14.01,2013-12-16 09:16:00,
2013-12-16 04:20:00,14.5,8.0,29.86,WNW,297,8.0,17.0,75,0.00,,---,0.00,VWS V14.01,2013-12-16 09:20:00,
2013-12-16 04:21:00,14.5,8.0,29.86,WNW,297,8.0,17.0,75,0.00,,---,0.00,VWS V14.01,2013-12-16 09:21:00,
2013-12-16 04:25:00,14.6,8.1,29.87,WNW,300,9.0,16.0,75,0.00,,---,0.00,VWS V14.01,2013-12-16 09:25:00,
2013-12-16 04:26:00,14.6,8.1,29.87,WNW,300,9.0,16.0,75,0.00,,---,0.00,VWS V14.01,2013-12-16 09:26:00,
2013-12-16 04:30:00,14.5,8.0,29.87,WNW,295,10.0,15.0,75,0.00,,---,0.00,VWS V14.01,2013-12-16 09:30:00,
2013-12-16 04:31:00,14.5,8.0,29.87,WNW,295,10.0,15.0,75,0.00,,---,0.00,VWS V14.01,2013-12-16 09:31:00,
2013-12-16 04:35:00,14.6,8.1,29.87,NW,324,9.0,14.0,75,0.00,,---,0.00,VWS V14.01,2013-12-16 09:35:00,
2013-12-16 04:36:00,14.6,8.1,29.87,NW,324,9.0,14.0,75,0.00,,---,0.00,VWS V14.01,2013-12-16 09:36:00,
2013-12-16 04:40:00,14.6,8.4,29.88,NW,324,7.0,17.0,76,0.00,,---,0.00,VWS V14.01,2013-12-16 09:40:00,
2013-12-16 04:41:00,14.6,8.4,29.88,NW,324,7.0,17.0,76,0.00,,---,0.00,VWS V14.01,2013-12-16 09:41:00,
2013-12-16 04:45:00,14.5,8.3,29.88,WNW,292,6.0,17.0,76,0.00,,---,0.00,VWS V14.01,2013-12-16 09:45:00,
2013-12-16 04:46:00,14.5,8.3,29.88,WNW,292,6.0,17.0,76,0.00,,---,0.00,VWS V14.01,2013-12-16 09:46:00,
2013-12-16 04:50:00,14.4,8.2,29.88,WNW,292,8.0,17.0,76,0.00,,---,0.00,VWS V14.01,2013-12-16 09:50:00,
2013-12-16 04:51:00,14.4,8.2,29.88,WNW,292,8.0,17.0,76,0.00,,---,0.00,VWS V14.01,2013-12-16 09:51:00,
2013-12-16 04:55:00,14.4,8.5,29.89,WNW,297,8.0,13.0,77,0.00,,---,0.00,VWS V14.01,2013-12-16 09:55:00,
2013-12-16 04:56:00,14.4,8.5,29.89,WNW,297,8.0,13.0,77,0.00,,---,0.00,VWS V14.01,2013-12-16 09:56:00,
2013-12-16 05:00:00,14.5,8.6,29.89,WNW,294,15.0,17.0,77,0.00,,---,0.00,VWS V14.01,2013-12-16 10:00:00,
2013-12-16 05:01:00,14.5,8.6,29.89,WNW,294,15.0,17.0,77,0.00,,---,0.00,VWS V14.01,2013-12-16 10:01:00,
2013-12-16 05:05:00,14.5,8.6,29.89,WNW,291,7.0,18.0,77,0.00,,---,0.00,VWS V14.01,2013-12-16 10:05:00,
2013-12-16 05:06:00,14.5,8.6,29.89,WNW,291,7.0,18.0,77,0.00,,---,0.00,VWS V14.01,2013-12-16 10:06:00,
2013-12-16 05:10:00,14.4,8.8,29.89,WNW,298,7.0,15.0,78,0.00,,---,0.00,VWS V14.01,2013-12-16 10:10:00,
2013-12-16 05:11:00,14.4,8.8,29.89,WNW,298,7.0,15.0,78,0.00,,---,0.00,VWS V14.01,2013-12-16 10:11:00,
2013-12-16 05:15:00,14.3,8.7,29.89,WNW,302,10.0,15.0,78,0.00,,---,0.00,VWS V14.01,2013-12-16 10:15:00,
2013-12-16 05:16:00,14.3,8.7,29.89,WNW,302,10.0,15.0,78,0.00,,---,0.00,VWS V14.01,2013-12-16 10:16:00,
2013-12-16 05:20:00,14.1,8.5,29.90,WNW,288,13.0,20.0,78,0.00,,---,0.00,VWS V14.01,2013-12-16 10:20:00,
2013-12-16 05:21:00,14.1,8.5,29.90,WNW,288,13.0,20.0,78,0.00,,---,0.00,VWS V14.01,2013-12-16 10:21:00,
2013-12-16 05:25:00,14.0,8.7,29.90,WNW,302,13.0,17.0,79,0.00,,---,0.00,VWS V14.01,2013-12-16 10:25:00,
2013-12-16 05:26:00,14.0,8.7,29.90,WNW,302,13.0,17.0,79,0.00,,---,0.00,VWS V14.01,2013-12-16 10:26:00,
2013-12-16 05:30:00,13.9,8.6,29.90,WNW,297,9.0,16.0,79,0.00,,---,0.00,VWS V14.01,2013-12-16 10:30:00,
2013-12-16 05:31:00,13.9,8.6,29.90,WNW,297,9.0,16.0,79,0.00,,---,0.00,VWS V14.01,2013-12-16 10:31:00,
2013-12-16 05:35:00,13.9,8.6,29.90,WNW,302,7.0,17.0,79,0.00,,---,0.00,VWS V14.01,2013-12-16 10:35:00,
2013-12-16 05:36:00,13.9,8.6,29.90,WNW,302,7.0,17.0,79,0.00,,---,0.00,VWS V14.01,2013-12-16 10:36:00,
2013-12-16 05:40:00,13.9,8.6,29.91,WNW,302,12.0,16.0,79,0.00,,---,0.00,VWS V14.01,2013-12-16 10:40:00,
2013-12-16 05:41:00,13.9,8.6,29.91,WNW,302,12.0,16.0,79,0.00,,---,0.00,VWS V14.01,2013-12-16 10:41:00,
2013-12-16 05:45:00,13.7,8.7,29.91,WNW,295,7.0,14.0,80,0.00,,---,0.00,VWS V14.01,2013-12-16 10:45:00,
2013-12-16 05:46:00,13.7,8.7,29.91,WNW,295,7.0,14.0,80,0.00,,---,0.00,VWS V14.01,2013-12-16 10:46:00,
2013-12-16 05:50:00,13.7,8.7,29.91,WNW,293,11.0,16.0,80,0.00,,---,0.00,VWS V14.01,2013-12-16 10:50:00,
2013-12-16 05:51:00,13.7,8.7,29.91,WNW,293,11.0,16.0,80,0.00,,---,0.00,VWS V14.01,2013-12-16 10:51:00,
2013-12-16 05:55:00,13.6,8.6,29.92,WNW,292,11.0,12.0,80,0.00,,---,0.00,VWS V14.01,2013-12-16 10:55:00,
2013-12-16 05:56:00,13.6,8.6,29.92,WNW,292,11.0,12.0,80,0.00,,---,0.00,VWS V14.01,2013-12-16 10:56:00,
2013-12-16 06:00:00,13.5,8.5,29.92,NW,308,6.0,12.0,80,0.00,,---,0.00,VWS V14.01,2013-12-16 11:00:00,
2013-12-16 06:01:00,13.5,8.5,29.92,NW,308,6.0,12.0,80,0.00,,---,0.00,VWS V14.01,2013-12-16 11:01:00,
2013-12-16 06:05:00,13.3,8.6,29.92,WNW,288,7.0,9.0,81,0.00,,---,0.00,VWS V14.01,2013-12-16 11:05:00,
2013-12-16 06:06:00,13.3,8.6,29.92,WNW,288,7.0,9.0,81,0.00,,---,0.00,VWS V14.01,2013-12-16 11:06:00,
2013-12-16 06:10:00,13.2,8.5,29.92,WNW,295,8.0,11.0,81,0.00,,---,0.00,VWS V14.01,2013-12-16 11:10:00,
2013-12-16 06:11:00,13.2,8.5,29.92,WNW,295,8.0,11.0,81,0.00,,---,0.00,VWS V14.01,2013-12-16 11:11:00,
2013-12-16 06:15:00,13.1,8.4,29.92,WNW,290,5.0,11.0,81,0.00,,---,0.00,VWS V14.01,2013-12-16 11:15:00,
2013-12-16 06:16:00,13.1,8.4,29.92,WNW,290,5.0,11.0,81,0.00,,---,0.00,VWS V14.01,2013-12-16 11:16:00,
2013-12-16 06:20:00,12.9,8.2,29.93,WNW,302,6.0,7.0,81,0.00,,---,0.00,VWS V14.01,2013-12-16 11:20:00,
2013-12-16 06:21:00,12.9,8.2,29.93,WNW,302,6.0,7.0,81,0.00,,---,0.00,VWS V14.01,2013-12-16 11:21:00,
2013-12-16 06:25:00,12.8,8.1,29.93,WNW,290,7.0,9.0,81,0.00,,---,0.00,VWS V14.01,2013-12-16 11:25:00,
2013-12-16 06:26:00,12.8,8.1,29.93,WNW,290,7.0,9.0,81,0.00,,---,0.00,VWS V14.01,2013-12-16 11:26:00,
2013-12-16 06:30:00,12.8,8.4,29.93,WNW,289,4.0,9.0,82,0.00,,---,0.00,VWS V14.01,2013-12-16 11:30:00,
2013-12-16 06:31:00,12.8,8.4,29.93,WNW,289,4.0,9.0,82,0.00,,---,0.00,VWS V14.01,2013-12-16 11:31:00,
2013-12-16 06:35:00,12.8,8.4,29.93,WNW,298,5.0,9.0,82,0.00,,---,0.00,VWS V14.01,2013-12-16 11:35:00,
2013-12-16 06:36:00,12.8,8.4,29.93,WNW,298,5.0,9.0,82,0.00,,---,0.00,VWS V14.01,2013-12-16 11:36:00,
2013-12-16 06:40:00,13.0,8.6,29.93,WNW,291,6.0,8.0,82,0.00,,---,0.00,VWS V14.01,2013-12-16 11:40:00,
2013-12-16 06:41:00,13.0,8.6,29.93,WNW,291,6.0,8.0,82,0.00,,---,0.00,VWS V14.01,2013-12-16 11:41:00,
2013-12-16 06:45:00,13.0,8.6,29.94,WNW,290,4.0,8.0,82,0.00,,---,0.00,VWS V14.01,2013-12-16 11:45:00,
2013-12-16 06:46:00,13.0,8.6,29.94,WNW,290,4.0,8.0,82,0.00,,---,0.00,VWS V14.01,2013-12-16 11:46:00,
2013-12-16 06:50:00,13.0,8.6,29.94,WNW,285,3.0,8.0,82,0.00,,---,0.00,VWS V14.01,2013-12-16 11:50:00,
2013-12-16 06:51:00,13.0,8.6,29.94,WNW,285,3.0,8.0,82,0.00,,---,0.00,VWS V14.01,2013-12-16 11:51:00,
2013-12-16 06:55:00,13.0,8.6,29.94,WNW,286,7.0,9.0,82,0.00,,---,0.00,VWS V14.01,2013-12-16 11:55:00,
2013-12-16 06:56:00,13.0,8.6,29.94,WNW,286,7.0,9.0,82,0.00,,---,0.00,VWS V14.01,2013-12-16 11:56:00,
2013-12-16 07:00:00,13.1,8.6,29.94,West,281,9.0,13.0,82,0.00,,---,0.00,VWS V14.01,2013-12-16 12:00:00,
2013-12-16 07:01:00,13.1,8.6,29.94,West,281,9.0,13.0,82,0.00,,---,0.00,VWS V14.01,2013-12-16 12:01:00,
2013-12-16 07:05:00,13.1,8.6,29.94,WNW,285,9.0,11.0,82,0.00,,---,0.00,VWS V14.01,2013-12-16 12:05:00,
2013-12-16 07:06:00,13.1,8.6,29.94,WNW,285,9.0,11.0,82,0.00,,---,0.00,VWS V14.01,2013-12-16 12:06:00,
2013-12-16 07:10:00,13.0,8.8,29.95,WNW,285,8.0,11.0,83,0.00,,---,0.00,VWS V14.01,2013-12-16 12:10:00,
2013-12-16 07:11:00,13.0,8.8,29.95,WNW,285,8.0,11.0,83,0.00,,---,0.00,VWS V14.01,2013-12-16 12:11:00,
2013-12-16 07:15:00,12.9,8.7,29.95,WNW,288,4.0,12.0,83,0.00,,---,0.00,VWS V14.01,2013-12-16 12:15:00,
2013-12-16 07:16:00,12.9,8.7,29.95,WNW,288,4.0,12.0,83,0.00,,---,0.00,VWS V14.01,2013-12-16 12:16:00,
2013-12-16 07:20:00,12.8,8.6,29.95,West,281,6.0,11.0,83,0.00,,---,0.00,VWS V14.01,2013-12-16 12:20:00,
2013-12-16 07:21:00,12.8,8.6,29.95,West,281,6.0,11.0,83,0.00,,---,0.00,VWS V14.01,2013-12-16 12:21:00,
2013-12-16 07:25:00,12.9,8.7,29.95,WNW,299,8.0,11.0,83,0.00,,---,0.00,VWS V14.01,2013-12-16 12:25:00,
2013-12-16 07:26:00,12.9,8.7,29.95,WNW,299,8.0,11.0,83,0.00,,---,0.00,VWS V14.01,2013-12-16 12:26:00,
2013-12-16 07:30:00,12.9,8.7,29.96,WNW,290,7.0,11.0,83,0.00,,---,0.00,VWS V14.01,2013-12-16 12:30:00,
2013-12-16 07:31:00,12.9,8.7,29.96,WNW,290,7.0,11.0,83,0.00,,---,0.00,VWS V14.01,2013-12-16 12:31:00,
2013-12-16 07:35:00,12.9,8.7,29.96,WNW,290,5.0,13.0,83,0.00,,---,0.00,VWS V14.01,2013-12-16 12:35:00,
2013-12-16 07:36:00,12.9,8.7,29.96,WNW,290,5.0,13.0,83,0.00,,---,0.00,VWS V14.01,2013-12-16 12:36:00,
2013-12-16 07:40:00,12.8,8.6,29.96,West,267,5.0,11.0,83,0.00,,---,0.00,VWS V14.01,2013-12-16 12:40:00,
2013-12-16 07:45:00,12.8,8.9,29.96,WNW,285,4.0,11.0,84,0.00,,---,0.00,VWS V14.01,2013-12-16 12:45:00,
2013-12-16 07:46:00,12.8,8.9,29.96,WNW,285,4.0,11.0,84,0.00,,---,0.00,VWS V14.01,2013-12-16 12:46:00,
2013-12-16 07:50:00,12.8,8.9,29.97,WNW,293,5.0,9.0,84,0.00,,---,0.00,VWS V14.01,2013-12-16 12:50:00,
2013-12-16 07:51:00,12.8,8.9,29.97,WNW,293,5.0,9.0,84,0.00,,---,0.00,VWS V14.01,2013-12-16 12:51:00,
2013-12-16 07:55:00,12.9,8.7,29.97,WSW,253,8.0,11.0,83,0.00,,---,0.00,VWS V14.01,2013-12-16 12:55:00,
2013-12-16 07:56:00,12.9,8.7,29.97,WSW,253,8.0,11.0,83,0.00,,---,0.00,VWS V14.01,2013-12-16 12:56:00,
2013-12-16 08:00:00,12.9,8.7,29.97,WNW,283,6.0,11.0,83,0.00,,---,0.00,VWS V14.01,2013-12-16 13:00:00,
2013-12-16 08:02:00,12.9,8.7,29.97,WNW,283,6.0,11.0,83,0.00,,---,0.00,VWS V14.01,2013-12-16 13:02:00,
2013-12-16 08:05:00,12.9,8.7,29.97,West,278,5.0,10.0,83,0.00,,---,0.00,VWS V14.01,2013-12-16 13:05:00,
2013-12-16 08:10:00,12.9,9.0,29.97,West,274,4.0,12.0,84,0.00,,---,0.00,VWS V14.01,2013-12-16 13:10:00,
2013-12-16 08:12:00,12.9,9.0,29.97,West,274,4.0,12.0,84,0.00,,---,0.00,VWS V14.01,2013-12-16 13:12:00,
2013-12-16 08:15:00,13.0,9.1,29.97,WNW,298,5.0,10.0,84,0.00,,---,0.00,VWS V14.01,2013-12-16 13:15:00,
2013-12-16 08:20:00,13.1,9.2,29.98,WNW,290,6.0,12.0,84,0.00,,---,0.00,VWS V14.01,2013-12-16 13:20:00,
2013-12-16 08:22:00,13.1,9.2,29.98,WNW,290,6.0,12.0,84,0.00,,---,0.00,VWS V14.01,2013-12-16 13:22:00,
2013-12-16 08:25:00,13.1,9.4,29.98,WNW,283,7.0,9.0,85,0.00,,---,0.00,VWS V14.01,2013-12-16 13:25:00,
2013-12-16 08:30:00,13.2,9.6,29.98,WNW,293,6.0,10.0,85,0.00,,---,0.00,VWS V14.01,2013-12-16 13:30:00,
2013-12-16 08:31:00,13.2,9.6,29.98,WNW,293,6.0,10.0,85,0.00,,---,0.00,VWS V14.01,2013-12-16 13:31:00,
2013-12-16 08:35:00,13.2,9.6,29.98,WNW,294,9.0,12.0,85,0.00,,---,0.00,VWS V14.01,2013-12-16 13:35:00,
2013-12-16 08:40:00,13.3,9.6,29.98,West,272,5.0,12.0,85,0.00,,---,0.00,VWS V14.01,2013-12-16 13:40:00,
2013-12-16 08:41:00,13.3,9.6,29.98,West,272,5.0,12.0,85,0.00,,---,0.00,VWS V14.01,2013-12-16 13:41:00,
2013-12-16 08:45:00,13.4,9.7,29.99,WNW,300,8.0,9.0,85,0.00,,---,0.00,VWS V14.01,2013-12-16 13:45:00,
2013-12-16 08:46:00,13.4,9.7,29.99,WNW,300,8.0,9.0,85,0.00,,---,0.00,VWS V14.01,2013-12-16 13:46:00,
2013-12-16 08:50:00,13.7,9.8,29.99,WNW,285,2.0,10.0,84,0.00,,---,0.00,VWS V14.01,2013-12-16 13:50:00,
2013-12-16 08:51:00,13.7,9.8,29.99,WNW,285,2.0,10.0,84,0.00,,---,0.00,VWS V14.01,2013-12-16 13:51:00,
2013-12-16 08:55:00,13.9,10.0,29.99,WNW,290,8.0,9.0,84,0.00,,---,0.00,VWS V14.01,2013-12-16 13:55:00,
2013-12-16 08:56:00,13.9,10.0,29.99,WNW,290,8.0,9.0,84,0.00,,---,0.00,VWS V14.01,2013-12-16 13:56:00,
2013-12-16 09:00:00,14.1,9.9,30.00,West,260,4.0,11.0,83,0.00,,---,0.00,VWS V14.01,2013-12-16 14:00:00,
2013-12-16 09:05:00,14.4,10.2,30.00,NW,308,9.0,9.0,83,0.00,,---,0.00,VWS V14.01,2013-12-16 14:05:00,
2013-12-16 09:06:00,14.4,10.2,30.00,NW,308,9.0,9.0,83,0.00,,---,0.00,VWS V14.01,2013-12-16 14:06:00,
2013-12-16 09:10:00,14.3,10.4,30.00,WNW,290,4.0,12.0,84,0.00,,---,0.00,VWS V14.01,2013-12-16 14:10:00,
2013-12-16 09:11:00,14.3,10.4,30.00,WNW,290,4.0,12.0,84,0.00,,---,0.00,VWS V14.01,2013-12-16 14:11:00,
2013-12-16 09:15:00,14.3,10.4,30.00,WNW,301,5.0,9.0,84,0.00,,---,0.00,VWS V14.01,2013-12-16 14:15:00,
2013-12-16 09:20:00,14.2,10.5,30.00,WNW,285,8.0,11.0,85,0.00,,---,0.00,VWS V14.01,2013-12-16 14:20:00,
2013-12-16 09:21:00,14.2,10.5,30.00,WNW,285,8.0,11.0,85,0.00,,---,0.00,VWS V14.01,2013-12-16 14:21:00,
2013-12-16 09:25:00,14.2,10.8,30.01,WNW,302,3.0,11.0,86,0.00,,---,0.00,VWS V14.01,2013-12-16 14:25:00,
2013-12-16 09:26:00,14.2,10.8,30.01,WNW,302,3.0,11.0,86,0.00,,---,0.00,VWS V14.01,2013-12-16 14:26:00,
2013-12-16 09:30:00,14.2,11.1,30.01,West,280,5.0,10.0,87,0.00,,---,0.00,VWS V14.01,2013-12-16 14:30:00,
2013-12-16 09:32:00,14.2,11.1,30.01,West,280,5.0,10.0,87,0.00,,---,0.00,VWS V14.01,2013-12-16 14:32:00,
2013-12-16 09:35:00,14.1,11.2,30.01,West,273,5.0,10.0,88,0.00,,---,0.00,VWS V14.01,2013-12-16 14:35:00,
2013-12-16 09:40:00,14.1,11.2,30.01,NW,310,7.0,8.0,88,0.00,,---,0.00,VWS V14.01,2013-12-16 14:40:00,
2013-12-16 09:41:00,14.1,11.2,30.01,NW,310,7.0,8.0,88,0.00,,---,0.00,VWS V14.01,2013-12-16 14:41:00,
2013-12-16 09:45:00,14.0,11.1,30.02,WNW,288,4.0,10.0,88,0.00,,---,0.00,VWS V14.01,2013-12-16 14:45:00,
2013-12-16 09:46:00,14.0,11.1,30.02,WNW,288,4.0,10.0,88,0.00,,---,0.00,VWS V14.01,2013-12-16 14:46:00,
2013-12-16 09:50:00,14.0,11.4,30.02,WNW,297,3.0,6.0,89,0.00,,---,0.00,VWS V14.01,2013-12-16 14:50:00,
2013-12-16 09:51:00,14.0,11.4,30.02,WNW,297,3.0,6.0,89,0.00,,---,0.00,VWS V14.01,2013-12-16 14:51:00,
2013-12-16 09:55:00,14.1,11.5,30.02,NNW,336,4.0,6.0,89,0.00,,---,0.00,VWS V14.01,2013-12-16 14:55:00,
2013-12-16 09:56:00,14.1,11.5,30.02,NNW,336,4.0,6.0,89,0.00,,---,0.00,VWS V14.01,2013-12-16 14:56:00,
2013-12-16 10:00:00,14.3,11.4,30.02,NNW,334,4.0,6.0,88,0.00,,---,0.00,VWS V14.01,2013-12-16 15:00:00,
2013-12-16 10:01:00,14.3,11.4,30.02,NNW,334,4.0,6.0,88,0.00,,---,0.00,VWS V14.01,2013-12-16 15:01:00,
2013-12-16 10:05:00,14.2,11.3,30.02,NW,316,4.0,6.0,88,0.00,,---,0.00,VWS V14.01,2013-12-16 15:05:00,
2013-12-16 10:06:00,14.2,11.3,30.02,NW,316,4.0,6.0,88,0.00,,---,0.00,VWS V14.01,2013-12-16 15:06:00,
2013-12-16 10:10:00,13.9,11.0,30.03,NW,321,5.0,7.0,88,0.00,,---,0.00,VWS V14.01,2013-12-16 15:10:00,
2013-12-16 10:15:00,13.6,10.7,30.03,NW,305,4.0,7.0,88,0.00,,---,0.00,VWS V14.01,2013-12-16 15:15:00,
2013-12-16 10:16:00,13.6,10.7,30.03,NW,305,4.0,7.0,88,0.00,,---,0.00,VWS V14.01,2013-12-16 15:16:00,
2013-12-16 10:20:00,13.6,10.7,30.03,NW,319,3.0,6.0,88,0.00,,---,0.00,VWS V14.01,2013-12-16 15:20:00,
2013-12-16 10:25:00,13.6,11.0,30.03,NNW,328,2.0,5.0,89,0.00,,---,0.00,VWS V14.01,2013-12-16 15:25:00,
2013-12-16 10:26:00,13.6,11.0,30.03,NNW,328,2.0,5.0,89,0.00,,---,0.00,VWS V14.01,2013-12-16 15:26:00,
2013-12-16 10:30:00,13.6,11.0,30.03,NW,304,2.0,7.0,89,0.00,,---,0.00,VWS V14.01,2013-12-16 15:30:00,
2013-12-16 10:31:00,13.6,11.0,30.03,NW,304,2.0,7.0,89,0.00,,---,0.00,VWS V14.01,2013-12-16 15:31:00,
2013-12-16 10:35:00,13.4,10.5,30.03,NW,319,4.0,8.0,88,0.00,,---,0.00,VWS V14.01,2013-12-16 15:35:00,
2013-12-16 10:36:00,13.4,10.5,30.03,NW,319,4.0,8.0,88,0.00,,---,0.00,VWS V14.01,2013-12-16 15:36:00,
2013-12-16 10:40:00,13.2,10.3,30.03,WNW,294,5.0,7.0,88,0.00,,---,0.00,VWS V14.01,2013-12-16 15:40:00,
2013-12-16 10:41:00,13.2,10.3,30.03,WNW,294,5.0,7.0,88,0.00,,---,0.00,VWS V14.01,2013-12-16 15:41:00,
2013-12-16 10:45:00,13.2,10.3,30.03,NW,316,6.0,8.0,88,0.00,,---,0.00,VWS V14.01,2013-12-16 15:45:00,
2013-12-16 10:50:00,13.2,10.6,30.03,NW,322,3.0,7.0,89,0.00,,---,0.00,VWS V14.01,2013-12-16 15:50:00,
2013-12-16 10:52:00,13.2,10.6,30.03,NW,322,3.0,7.0,89,0.00,,---,0.00,VWS V14.01,2013-12-16 15:52:00,
2013-12-16 10:55:00,13.3,10.7,30.03,NW,322,3.0,6.0,89,0.00,,---,0.00,VWS V14.01,2013-12-16 15:55:00,
2013-12-16 11:00:00,13.4,10.8,30.03,WNW,297,3.0,6.0,89,0.00,,---,0.00,VWS V14.01,2013-12-16 16:00:00,
2013-12-16 11:02:00,13.4,10.8,30.03,WNW,297,3.0,6.0,89,0.00,,---,0.00,VWS V14.01,2013-12-16 16:02:00,
2013-12-16 11:05:00,13.5,11.1,30.03,NW,326,3.0,6.0,90,0.00,,---,0.00,VWS V14.01,2013-12-16 16:05:00,
2013-12-16 11:10:00,13.6,11.0,30.03,NNW,329,3.0,5.0,89,0.00,,---,0.00,VWS V14.01,2013-12-16 16:10:00,
2013-12-16 11:11:00,13.6,11.0,30.03,NNW,329,3.0,5.0,89,0.00,,---,0.00,VWS V14.01,2013-12-16 16:11:00,
2013-12-16 11:15:00,13.6,11.0,30.03,WNW,287,3.0,4.0,89,0.00,,---,0.00,VWS V14.01,2013-12-16 16:15:00,
2013-12-16 11:16:00,13.6,11.0,30.03,WNW,287,3.0,4.0,89,0.00,,---,0.00,VWS V14.01,2013-12-16 16:16:00,
2013-12-16 11:20:00,13.7,11.1,30.03,NW,304,5.0,6.0,89,0.00,,---,0.00,VWS V14.01,2013-12-16 16:20:00,
2013-12-16 11:21:00,13.7,11.1,30.03,NW,304,5.0,6.0,89,0.00,,---,0.00,VWS V14.01,2013-12-16 16:21:00,
2013-12-16 11:25:00,13.7,11.1,30.03,NW,314,2.0,6.0,89,0.00,,---,0.00,VWS V14.01,2013-12-16 16:25:00,
2013-12-16 11:26:00,13.7,11.1,30.03,NW,314,2.0,6.0,89,0.00,,---,0.00,VWS V14.01,2013-12-16 16:26:00,
2013-12-16 11:30:00,13.7,11.1,30.03,NW,315,4.0,5.0,89,0.00,,---,0.00,VWS V14.01,2013-12-16 16:30:00,
2013-12-16 11:35:00,13.8,11.2,30.03,WNW,294,2.0,6.0,89,0.00,,---,0.00,VWS V14.01,2013-12-16 16:35:00,
2013-12-16 11:36:00,13.8,11.2,30.03,WNW,294,2.0,6.0,89,0.00,,---,0.00,VWS V14.01,2013-12-16 16:36:00,
2013-12-16 11:40:00,14.0,11.4,30.03,NW,318,4.0,5.0,89,0.00,,---,0.00,VWS V14.01,2013-12-16 16:40:00,
2013-12-16 11:41:00,14.0,11.4,30.03,NW,318,4.0,5.0,89,0.00,,---,0.00,VWS V14.01,2013-12-16 16:41:00,
2013-12-16 11:45:00,14.1,11.5,30.03,WNW,298,4.0,6.0,89,0.00,,---,0.00,VWS V14.01,2013-12-16 16:45:00,
2013-12-16 11:46:00,14.1,11.5,30.03,WNW,298,4.0,6.0,89,0.00,,---,0.00,VWS V14.01,2013-12-16 16:46:00,
2013-12-16 11:50:00,14.1,11.5,30.03,WNW,290,6.0,7.0,89,0.00,,---,0.00,VWS V14.01,2013-12-16 16:50:00,
2013-12-16 11:55:00,14.2,11.6,30.03,NW,308,5.0,7.0,89,0.00,,---,0.00,VWS V14.01,2013-12-16 16:55:00,
2013-12-16 11:56:00,14.2,11.6,30.03,NW,308,5.0,7.0,89,0.00,,---,0.00,VWS V14.01,2013-12-16 16:56:00,
2013-12-16 12:00:00,14.1,11.2,30.03,NW,319,6.0,7.0,88,0.00,,---,0.00,VWS V14.01,2013-12-16 17:00:00,
2013-12-16 12:02:00,14.1,11.2,30.03,NW,319,6.0,7.0,88,0.00,,---,0.00,VWS V14.01,2013-12-16 17:02:00,
2013-12-16 12:05:00,14.2,11.6,30.03,NW,326,4.0,6.0,89,0.00,,---,0.00,VWS V14.01,2013-12-16 17:05:00,
2013-12-16 12:10:00,13.9,11.0,30.03,NNW,333,2.0,6.0,88,0.00,,---,0.00,VWS V14.01,2013-12-16 17:10:00,
2013-12-16 12:11:00,13.9,11.0,30.03,NNW,333,2.0,6.0,88,0.00,,---,0.00,VWS V14.01,2013-12-16 17:11:00,
2013-12-16 12:15:00,14.0,11.1,30.03,WNW,300,3.0,6.0,88,0.00,,---,0.00,VWS V14.01,2013-12-16 17:15:00,
2013-12-16 12:16:00,14.0,11.1,30.03,WNW,300,3.0,6.0,88,0.00,,---,0.00,VWS V14.01,2013-12-16 17:16:00,
2013-12-16 12:20:00,13.9,10.8,30.03,NW,311,2.0,6.0,87,0.00,,---,0.00,VWS V14.01,2013-12-16 17:20:00,
2013-12-16 12:21:00,13.9,10.8,30.03,NW,311,2.0,6.0,87,0.00,,---,0.00,VWS V14.01,2013-12-16 17:21:00,
2013-12-16 12:25:00,14.2,11.3,30.03,NNW,338,2.0,5.0,88,0.00,,---,0.00,VWS V14.01,2013-12-16 17:25:00,
2013-12-16 12:26:00,14.2,11.3,30.03,NNW,338,2.0,5.0,88,0.00,,---,0.00,VWS V14.01,2013-12-16 17:26:00,
2013-12-16 12:30:00,14.6,11.4,30.03,WNW,300,9.0,9.0,87,0.00,,---,0.00,VWS V14.01,2013-12-16 17:30:00,
2013-12-16 12:31:00,14.6,11.4,30.03,WNW,300,9.0,9.0,87,0.00,,---,0.00,VWS V14.01,2013-12-16 17:31:00,
2013-12-16 12:35:00,14.6,11.4,30.03,NW,305,5.0,9.0,87,0.00,,---,0.00,VWS V14.01,2013-12-16 17:35:00,
2013-12-16 12:40:00,14.2,11.3,30.03,NW,323,7.0,9.0,88,0.00,,---,0.00,VWS V14.01,2013-12-16 17:40:00,
2013-12-16 12:41:00,14.2,11.3,30.03,NW,323,7.0,9.0,88,0.00,,---,0.00,VWS V14.01,2013-12-16 17:41:00,
2013-12-16 12:45:00,13.9,11.0,30.03,NW,316,4.0,10.0,88,0.00,,---,0.00,VWS V14.01,2013-12-16 17:45:00,
2013-12-16 12:50:00,13.8,11.2,30.03,WNW,296,7.0,9.0,89,0.00,,---,0.00,VWS V14.01,2013-12-16 17:50:00,
2013-12-16 12:51:00,13.8,11.2,30.03,WNW,296,7.0,9.0,89,0.00,,---,0.00,VWS V14.01,2013-12-16 17:51:00,
2013-12-16 12:55:00,13.9,11.5,30.03,NNW,336,4.0,7.0,90,0.00,,---,0.00,VWS V14.01,2013-12-16 17:55:00,
2013-12-16 12:56:00,13.9,11.5,30.03,NNW,336,4.0,7.0,90,0.00,,---,0.00,VWS V14.01,2013-12-16 17:56:00,
2013-12-16 13:00:00,13.9,11.3,30.03,NNW,333,2.0,9.0,89,0.00,,---,0.00,VWS V14.01,2013-12-16 18:00:00,
2013-12-16 13:01:00,13.9,11.3,30.03,NNW,333,2.0,9.0,89,0.00,,---,0.00,VWS V14.01,2013-12-16 18:01:00,
2013-12-16 13:05:00,13.8,11.2,30.03,NW,307,2.0,6.0,89,0.00,,---,0.00,VWS V14.01,2013-12-16 18:05:00,
2013-12-16 13:10:00,13.9,11.3,30.02,WNW,284,4.0,8.0,89,0.00,,---,0.00,VWS V14.01,2013-12-16 18:10:00,
2013-12-16 13:11:00,13.9,11.3,30.02,WNW,284,4.0,8.0,89,0.00,,---,0.00,VWS V14.01,2013-12-16 18:11:00,
2013-12-16 13:15:00,13.8,11.2,30.02,NW,304,5.0,8.0,89,0.00,,---,0.00,VWS V14.01,2013-12-16 18:15:00,
2013-12-16 13:20:00,13.8,11.2,30.02,NW,315,5.0,5.0,89,0.00,,---,0.00,VWS V14.01,2013-12-16 18:20:00,
2013-12-16 13:21:00,13.8,11.2,30.02,NW,315,5.0,5.0,89,0.00,,---,0.00,VWS V14.01,2013-12-16 18:21:00,
2013-12-16 13:25:00,13.7,11.1,30.02,NNW,338,3.0,7.0,89,0.00,,---,0.00,VWS V14.01,2013-12-16 18:25:00,
2013-12-16 13:26:00,13.7,11.1,30.02,NNW,338,3.0,7.0,89,0.00,,---,0.00,VWS V14.01,2013-12-16 18:26:00,
2013-12-16 13:30:00,13.6,11.0,30.03,WNW,296,3.0,7.0,89,0.00,,---,0.00,VWS V14.01,2013-12-16 18:30:00,
2013-12-16 13:35:00,13.5,10.9,30.03,NW,323,3.0,6.0,89,0.00,,---,0.00,VWS V14.01,2013-12-16 18:35:00,
2013-12-16 13:36:00,13.5,10.9,30.03,NW,323,3.0,6.0,89,0.00,,---,0.00,VWS V14.01,2013-12-16 18:36:00,
2013-12-16 13:40:00,13.4,11.0,30.03,WNW,296,5.0,6.0,90,0.00,,---,0.00,VWS V14.01,2013-12-16 18:40:00,
2013-12-16 13:45:00,13.1,10.5,30.03,NW,315,3.0,7.0,89,0.00,,---,0.00,VWS V14.01,2013-12-16 18:45:00,
2013-12-16 13:46:00,13.1,10.5,30.03,NW,315,3.0,7.0,89,0.00,,---,0.00,VWS V14.01,2013-12-16 18:46:00,
2013-12-16 13:50:00,13.0,10.4,30.03,WNW,294,5.0,7.0,89,0.00,,---,0.00,VWS V14.01,2013-12-16 18:50:00,
2013-12-16 13:51:00,13.0,10.4,30.03,WNW,294,5.0,7.0,89,0.00,,---,0.00,VWS V14.01,2013-12-16 18:51:00,
2013-12-16 13:55:00,13.0,10.4,30.03,NW,309,3.0,8.0,89,0.00,,---,0.00,VWS V14.01,2013-12-16 18:55:00,
2013-12-16 13:56:00,13.0,10.4,30.03,NW,309,3.0,8.0,89,0.00,,---,0.00,VWS V14.01,2013-12-16 18:56:00,
2013-12-16 14:00:00,13.2,10.6,30.04,NW,319,4.0,6.0,89,0.00,,---,0.00,VWS V14.01,2013-12-16 19:00:00,
2013-12-16 14:02:00,13.2,10.6,30.04,NW,319,4.0,6.0,89,0.00,,---,0.00,VWS V14.01,2013-12-16 19:02:00,
2013-12-16 14:05:00,13.4,10.8,30.04,WNW,297,2.0,6.0,89,0.00,,---,0.00,VWS V14.01,2013-12-16 19:05:00,
2013-12-16 14:10:00,13.9,11.3,30.04,NW,314,5.0,5.0,89,0.00,,---,0.00,VWS V14.01,2013-12-16 19:10:00,
2013-12-16 14:11:00,13.9,11.3,30.04,NW,314,5.0,5.0,89,0.00,,---,0.00,VWS V14.01,2013-12-16 19:11:00,
2013-12-16 14:15:00,14.1,11.2,30.04,NW,322,2.0,8.0,88,0.00,,---,0.00,VWS V14.01,2013-12-16 19:15:00,
2013-12-16 14:16:00,14.1,11.2,30.04,NW,322,2.0,8.0,88,0.00,,---,0.00,VWS V14.01,2013-12-16 19:16:00,
2013-12-16 14:20:00,13.9,11.0,30.05,WNW,294,6.0,10.0,88,0.00,,---,0.00,VWS V14.01,2013-12-16 19:20:00,
2013-12-16 14:21:00,13.9,11.0,30.05,WNW,294,6.0,10.0,88,0.00,,---,0.00,VWS V14.01,2013-12-16 19:21:00,
2013-12-16 14:25:00,13.5,10.6,30.05,WNW,300,6.0,9.0,88,0.00,,---,0.00,VWS V14.01,2013-12-16 19:25:00,
2013-12-16 14:26:00,13.5,10.6,30.05,WNW,300,6.0,9.0,88,0.00,,---,0.00,VWS V14.01,2013-12-16 19:26:00,
2013-12-16 14:30:00,13.4,10.5,30.05,NW,315,9.0,9.0,88,0.00,,---,0.00,VWS V14.01,2013-12-16 19:30:00,
2013-12-16 14:31:00,13.4,10.5,30.05,NW,315,9.0,9.0,88,0.00,,---,0.00,VWS V14.01,2013-12-16 19:31:00,
2013-12-16 14:35:00,13.5,10.9,30.05,WNW,288,6.0,8.0,89,0.00,,---,0.00,VWS V14.01,2013-12-16 19:35:00,
2013-12-16 14:36:00,13.5,10.9,30.05,WNW,288,6.0,8.0,89,0.00,,---,0.00,VWS V14.01,2013-12-16 19:36:00,
2013-12-16 14:40:00,13.5,10.6,30.05,WNW,302,6.0,8.0,88,0.00,,---,0.00,VWS V14.01,2013-12-16 19:40:00,
2013-12-16 14:41:00,13.5,10.6,30.05,WNW,302,6.0,8.0,88,0.00,,---,0.00,VWS V14.01,2013-12-16 19:41:00,
2013-12-16 14:45:00,13.6,11.0,30.05,WNW,294,5.0,8.0,89,0.00,,---,0.00,VWS V14.01,2013-12-16 19:45:00,
2013-12-16 14:46:00,13.6,11.0,30.05,WNW,294,5.0,8.0,89,0.00,,---,0.00,VWS V14.01,2013-12-16 19:46:00,
2013-12-16 14:50:00,13.9,11.0,30.06,WNW,293,7.0,8.0,88,0.00,,---,0.00,VWS V14.01,2013-12-16 19:50:00,
2013-12-16 14:55:00,14.0,10.9,30.06,WNW,296,6.0,12.0,87,0.00,,---,0.00,VWS V14.01,2013-12-16 19:55:00,
2013-12-16 14:57:00,14.0,10.9,30.06,WNW,296,6.0,12.0,87,0.00,,---,0.00,VWS V14.01,2013-12-16 19:57:00,
2013-12-16 15:00:00,14.1,10.4,30.06,WNW,290,9.0,10.0,85,0.00,,---,0.00,VWS V14.01,2013-12-16 20:00:00,
2013-12-16 15:05:00,14.2,10.3,30.06,NW,308,7.0,13.0,84,0.00,,---,0.00,VWS V14.01,2013-12-16 20:05:00,
2013-12-16 15:06:00,14.2,10.3,30.06,NW,308,7.0,13.0,84,0.00,,---,0.00,VWS V14.01,2013-12-16 20:06:00,
2013-12-16 15:10:00,14.3,10.4,30.06,WNW,287,5.0,10.0,84,0.00,,---,0.00,VWS V14.01,2013-12-16 20:10:00,
2013-12-16 15:11:00,14.3,10.4,30.06,WNW,287,5.0,10.0,84,0.00,,---,0.00,VWS V14.01,2013-12-16 20:11:00,
2013-12-16 15:15:00,14.5,10.3,30.06,WNW,298,7.0,13.0,83,0.00,,---,0.00,VWS V14.01,2013-12-16 20:15:00,
2013-12-16 15:20:00,14.7,10.2,30.07,NNW,340,12.0,13.0,82,0.00,,---,0.00,VWS V14.01,2013-12-16 20:20:00,
2013-12-16 15:21:00,14.7,10.2,30.07,NNW,340,12.0,13.0,82,0.00,,---,0.00,VWS V14.01,2013-12-16 20:21:00,
2013-12-16 15:25:00,14.6,10.1,30.07,WNW,298,5.0,13.0,82,0.00,,---,0.00,VWS V14.01,2013-12-16 20:25:00,
2013-12-16 15:30:00,14.3,10.1,30.08,NW,308,4.0,9.0,83,0.00,,---,0.00,VWS V14.01,2013-12-16 20:30:00,
2013-12-16 15:31:00,14.3,10.1,30.08,NW,308,4.0,9.0,83,0.00,,---,0.00,VWS V14.01,2013-12-16 20:31:00,
2013-12-16 15:35:00,13.9,10.0,30.08,NW,319,5.0,9.0,84,0.00,,---,0.00,VWS V14.01,2013-12-16 20:35:00,
2013-12-16 15:40:00,13.4,10.0,30.08,NW,308,3.0,10.0,86,0.00,,---,0.00,VWS V14.01,2013-12-16 20:40:00,
2013-12-16 15:41:00,13.4,10.0,30.08,NW,308,3.0,10.0,86,0.00,,---,0.00,VWS V14.01,2013-12-16 20:41:00,
2013-12-16 15:45:00,13.1,9.7,30.08,WNW,297,8.0,8.0,86,0.00,,---,0.00,VWS V14.01,2013-12-16 20:45:00,
2013-12-16 15:46:00,13.1,9.7,30.08,WNW,297,8.0,8.0,86,0.00,,---,0.00,VWS V14.01,2013-12-16 20:46:00,
2013-12-16 15:50:00,12.9,9.5,30.08,WNW,290,5.0,8.0,86,0.00,,---,0.00,VWS V14.01,2013-12-16 20:50:00,
2013-12-16 15:51:00,12.9,9.5,30.08,WNW,290,5.0,8.0,86,0.00,,---,0.00,VWS V14.01,2013-12-16 20:51:00,
2013-12-16 15:55:00,12.8,9.7,30.08,NW,323,2.0,8.0,87,0.00,,---,0.00,VWS V14.01,2013-12-16 20:55:00,
2013-12-16 15:56:00,12.8,9.7,30.08,NW,323,2.0,8.0,87,0.00,,---,0.00,VWS V14.01,2013-12-16 20:56:00,
2013-12-16 16:00:00,12.5,9.1,30.09,WNW,291,4.0,6.0,86,0.00,,---,0.00,VWS V14.01,2013-12-16 21:00:00,
2013-12-16 16:05:00,12.4,9.3,30.09,WNW,297,3.0,6.0,87,0.00,,---,0.00,VWS V14.01,2013-12-16 21:05:00,
2013-12-16 16:06:00,12.4,9.3,30.09,WNW,297,3.0,6.0,87,0.00,,---,0.00,VWS V14.01,2013-12-16 21:06:00,
2013-12-16 16:10:00,12.1,9.0,30.09,NW,320,2.0,7.0,87,0.00,,---,0.00,VWS V14.01,2013-12-16 21:10:00,
2013-12-16 16:15:00,11.9,9.0,30.09,NW,310,3.0,7.0,88,0.00,,---,0.00,VWS V14.01,2013-12-16 21:15:00,
2013-12-16 16:16:00,11.9,9.0,30.09,NW,310,3.0,7.0,88,0.00,,---,0.00,VWS V14.01,2013-12-16 21:16:00,
2013-12-16 16:20:00,11.7,9.1,30.10,NW,305,4.0,7.0,89,0.00,,---,0.00,VWS V14.01,2013-12-16 21:20:00,
2013-12-16 16:21:00,11.7,9.1,30.10,NW,305,4.0,7.0,89,0.00,,---,0.00,VWS V14.01,2013-12-16 21:21:00,
2013-12-16 16:25:00,11.3,8.7,30.10,NW,311,4.0,5.0,89,0.00,,---,0.00,VWS V14.01,2013-12-16 21:25:00,
2013-12-16 16:26:00,11.3,8.7,30.10,NW,311,4.0,5.0,89,0.00,,---,0.00,VWS V14.01,2013-12-16 21:26:00,
2013-12-16 16:30:00,11.2,8.9,30.10,NW,316,3.0,8.0,90,0.00,,---,0.00,VWS V14.01,2013-12-16 21:30:00,
2013-12-16 16:31:00,11.2,8.9,30.10,NW,316,3.0,8.0,90,0.00,,---,0.00,VWS V14.01,2013-12-16 21:31:00,
2013-12-16 16:35:00,11.1,8.8,30.10,NW,309,5.0,8.0,90,0.00,,---,0.00,VWS V14.01,2013-12-16 21:35:00,
2013-12-16 16:36:00,11.1,8.8,30.10,NW,309,5.0,8.0,90,0.00,,---,0.00,VWS V14.01,2013-12-16 21:36:00,
2013-12-16 16:40:00,11.2,9.1,30.10,NW,307,7.0,8.0,91,0.00,,---,0.00,VWS V14.01,2013-12-16 21:40:00,
2013-12-16 16:41:00,11.2,9.1,30.10,NW,307,7.0,8.0,91,0.00,,---,0.00,VWS V14.01,2013-12-16 21:41:00,
2013-12-16 16:45:00,11.3,9.2,30.11,NW,304,7.0,9.0,91,0.00,,---,0.00,VWS V14.01,2013-12-16 21:45:00,
2013-12-16 16:46:00,11.3,9.2,30.11,NW,304,7.0,9.0,91,0.00,,---,0.00,VWS V14.01,2013-12-16 21:46:00,
2013-12-16 16:50:00,11.3,9.2,30.11,WNW,290,9.0,13.0,91,0.00,,---,0.00,VWS V14.01,2013-12-16 21:50:00,
2013-12-16 16:51:00,11.3,9.2,30.11,WNW,290,9.0,13.0,91,0.00,,---,0.00,VWS V14.01,2013-12-16 21:51:00,
2013-12-16 16:55:00,11.3,9.2,30.11,WNW,293,4.0,13.0,91,0.00,,---,0.00,VWS V14.01,2013-12-16 21:55:00,
2013-12-16 16:56:00,11.3,9.2,30.11,WNW,293,4.0,13.0,91,0.00,,---,0.00,VWS V14.01,2013-12-16 21:56:00,
2013-12-16 17:00:00,11.0,8.6,30.11,WNW,300,5.0,5.0,90,0.00,,---,0.00,VWS V14.01,2013-12-16 22:00:00,
2013-12-16 17:01:00,11.0,8.6,30.11,WNW,300,5.0,5.0,90,0.00,,---,0.00,VWS V14.01,2013-12-16 22:01:00,
2013-12-16 17:05:00,11.0,8.6,30.11,NW,309,6.0,10.0,90,0.00,,---,0.00,VWS V14.01,2013-12-16 22:05:00,
2013-12-16 17:06:00,11.0,8.6,30.11,NW,309,6.0,10.0,90,0.00,,---,0.00,VWS V14.01,2013-12-16 22:06:00,
2013-12-16 17:10:00,11.0,8.9,30.11,WNW,292,5.0,8.0,91,0.00,,---,0.00,VWS V14.01,2013-12-16 22:10:00,
2013-12-16 17:15:00,11.0,8.9,30.11,WNW,291,2.0,6.0,91,0.00,,---,0.00,VWS V14.01,2013-12-16 22:15:00,
2013-12-16 17:16:00,11.0,8.9,30.11,WNW,291,2.0,6.0,91,0.00,,---,0.00,VWS V14.01,2013-12-16 22:16:00,
2013-12-16 17:20:00,10.8,8.7,30.12,WNW,293,3.0,7.0,91,0.00,,---,0.00,VWS V14.01,2013-12-16 22:20:00,
2013-12-16 17:21:00,10.8,8.7,30.12,WNW,293,3.0,7.0,91,0.00,,---,0.00,VWS V14.01,2013-12-16 22:21:00,
2013-12-16 17:25:00,10.6,8.5,30.12,WNW,295,5.0,8.0,91,0.00,,---,0.00,VWS V14.01,2013-12-16 22:25:00,
2013-12-16 17:26:00,10.6,8.5,30.12,WNW,295,5.0,8.0,91,0.00,,---,0.00,VWS V14.01,2013-12-16 22:26:00,
2013-12-16 17:30:00,10.4,8.3,30.13,WNW,297,5.0,6.0,91,0.00,,---,0.00,VWS V14.01,2013-12-16 22:30:00,
2013-12-16 17:31:00,10.4,8.3,30.13,WNW,297,5.0,6.0,91,0.00,,---,0.00,VWS V14.01,2013-12-16 22:31:00,
2013-12-16 17:35:00,10.3,8.2,30.13,WNW,298,6.0,7.0,91,0.00,,---,0.00,VWS V14.01,2013-12-16 22:35:00,
2013-12-16 17:36:00,10.3,8.2,30.13,WNW,298,6.0,7.0,91,0.00,,---,0.00,VWS V14.01,2013-12-16 22:36:00,
2013-12-16 17:40:00,10.3,8.2,30.13,NW,305,4.0,10.0,91,0.00,,---,0.00,VWS V14.01,2013-12-16 22:40:00,
2013-12-16 17:41:00,10.3,8.2,30.13,NW,305,4.0,10.0,91,0.00,,---,0.00,VWS V14.01,2013-12-16 22:41:00,
2013-12-16 17:45:00,10.1,7.8,30.13,NW,316,5.0,8.0,90,0.00,,---,0.00,VWS V14.01,2013-12-16 22:45:00,
2013-12-16 17:46:00,10.1,7.8,30.13,NW,316,5.0,8.0,90,0.00,,---,0.00,VWS V14.01,2013-12-16 22:46:00,
2013-12-16 17:50:00,10.0,7.7,30.13,NW,308,7.0,7.0,90,0.00,,---,0.00,VWS V14.01,2013-12-16 22:50:00,
2013-12-16 17:51:00,10.0,7.7,30.13,NW,308,7.0,7.0,90,0.00,,---,0.00,VWS V14.01,2013-12-16 22:51:00,
2013-12-16 17:55:00,10.0,7.7,30.14,WNW,301,4.0,8.0,90,0.00,,---,0.00,VWS V14.01,2013-12-16 22:55:00,
2013-12-16 17:56:00,10.0,7.7,30.14,WNW,301,4.0,8.0,90,0.00,,---,0.00,VWS V14.01,2013-12-16 22:56:00,
2013-12-16 18:00:00,10.0,7.7,30.14,WNW,297,2.0,7.0,90,0.00,,---,0.00,VWS V14.01,2013-12-16 23:00:00,
2013-12-16 18:01:00,10.0,7.7,30.14,WNW,297,2.0,7.0,90,0.00,,---,0.00,VWS V14.01,2013-12-16 23:01:00,
2013-12-16 18:05:00,9.7,7.4,30.15,WNW,297,1.0,3.0,90,0.00,,---,0.00,VWS V14.01,2013-12-16 23:05:00,
2013-12-16 18:06:00,9.7,7.4,30.15,WNW,297,1.0,3.0,90,0.00,,---,0.00,VWS V14.01,2013-12-16 23:06:00,
2013-12-16 18:10:00,9.3,6.7,30.15,WNW,290,1.0,3.0,89,0.00,,---,0.00,VWS V14.01,2013-12-16 23:10:00,
2013-12-16 18:11:00,9.3,6.7,30.15,WNW,290,1.0,3.0,89,0.00,,---,0.00,VWS V14.01,2013-12-16 23:11:00,
2013-12-16 18:15:00,8.8,6.2,30.15,WNW,295,1.0,1.0,89,0.00,,---,0.00,VWS V14.01,2013-12-16 23:15:00,
2013-12-16 18:16:00,8.8,6.2,30.15,WNW,295,1.0,1.0,89,0.00,,---,0.00,VWS V14.01,2013-12-16 23:16:00,
2013-12-16 18:20:00,8.3,5.7,30.15,NW,323,1.0,3.0,89,0.00,,---,0.00,VWS V14.01,2013-12-16 23:20:00,
2013-12-16 18:21:00,8.3,5.7,30.15,NW,323,1.0,3.0,89,0.00,,---,0.00,VWS V14.01,2013-12-16 23:21:00,
2013-12-16 18:25:00,7.7,5.1,30.16,NW,326,1.0,2.0,89,0.00,,---,0.00,VWS V14.01,2013-12-16 23:25:00,
2013-12-16 18:26:00,7.7,5.1,30.16,NW,326,1.0,2.0,89,0.00,,---,0.00,VWS V14.01,2013-12-16 23:26:00,
2013-12-16 18:30:00,7.5,5.2,30.16,NW,315,1.0,3.0,90,0.00,,---,0.00,VWS V14.01,2013-12-16 23:30:00,
2013-12-16 18:31:00,7.5,5.2,30.16,NW,315,1.0,3.0,90,0.00,,---,0.00,VWS V14.01,2013-12-16 23:31:00,
2013-12-16 18:35:00,7.4,5.1,30.16,WNW,301,0.0,3.0,90,0.00,,---,0.00,VWS V14.01,2013-12-16 23:35:00,
2013-12-16 18:36:00,7.4,5.1,30.16,WNW,301,0.0,3.0,90,0.00,,---,0.00,VWS V14.01,2013-12-16 23:36:00,
2013-12-16 18:40:00,7.0,4.7,30.16,WNW,294,3.0,3.0,90,0.00,,---,0.00,VWS V14.01,2013-12-16 23:40:00,
2013-12-16 18:41:00,7.0,4.7,30.16,WNW,294,3.0,3.0,90,0.00,,---,0.00,VWS V14.01,2013-12-16 23:41:00,
2013-12-16 18:45:00,7.0,4.7,30.17,NW,305,0.0,2.0,90,0.00,,---,0.00,VWS V14.01,2013-12-16 23:45:00,
2013-12-16 18:46:00,7.0,4.7,30.17,NW,305,0.0,2.0,90,0.00,,---,0.00,VWS V14.01,2013-12-16 23:46:00,
2013-12-16 18:50:00,6.9,4.8,30.17,WNW,290,1.0,3.0,91,0.00,,---,0.00,VWS V14.01,2013-12-16 23:50:00,
2013-12-16 18:51:00,6.9,4.8,30.17,WNW,290,1.0,3.0,91,0.00,,---,0.00,VWS V14.01,2013-12-16 23:51:00,
2013-12-16 18:55:00,7.0,4.9,30.17,WNW,285,1.0,2.0,91,0.00,,---,0.00,VWS V14.01,2013-12-16 23:55:00,
2013-12-16 18:56:00,7.0,4.9,30.17,WNW,285,1.0,2.0,91,0.00,,---,0.00,VWS V14.01,2013-12-16 23:56:00,
2013-12-16 19:00:00,7.2,5.1,30.17,WNW,291,2.0,3.0,91,0.00,,---,0.00,VWS V14.01,2013-12-17 00:00:00,
2013-12-16 19:01:00,7.2,5.1,30.17,WNW,291,2.0,3.0,91,0.00,,---,0.00,VWS V14.01,2013-12-17 00:01:00,
2013-12-16 19:05:00,6.4,3.9,30.18,NW,311,1.0,2.0,89,0.00,,---,0.00,VWS V14.01,2013-12-17 00:05:00,
2013-12-16 19:06:00,6.4,3.9,30.18,NW,311,1.0,2.0,89,0.00,,---,0.00,VWS V14.01,2013-12-17 00:06:00,
2013-12-16 19:10:00,5.8,3.3,30.18,WNW,288,0.0,2.0,89,0.00,,---,0.00,VWS V14.01,2013-12-17 00:10:00,
2013-12-16 19:12:00,5.8,3.3,30.18,WNW,288,0.0,2.0,89,0.00,,---,0.00,VWS V14.01,2013-12-17 00:12:00,
2013-12-16 19:15:00,5.4,3.1,30.19,WNW,284,0.0,1.0,90,0.00,,---,0.00,VWS V14.01,2013-12-17 00:15:00,
2013-12-16 19:20:00,5.7,3.7,30.19,WNW,284,0.0,1.0,91,0.00,,---,0.00,VWS V14.01,2013-12-17 00:20:00,
2013-12-16 19:21:00,5.7,3.7,30.19,WNW,284,0.0,1.0,91,0.00,,---,0.00,VWS V14.01,2013-12-17 00:21:00,
2013-12-16 19:25:00,6.0,3.9,30.19,WNW,286,0.0,2.0,91,0.00,,---,0.00,VWS V14.01,2013-12-17 00:25:00,
2013-12-16 19:26:00,6.0,3.9,30.19,WNW,286,0.0,2.0,91,0.00,,---,0.00,VWS V14.01,2013-12-17 00:26:00,
2013-12-16 19:30:00,6.2,4.1,30.19,WNW,288,1.0,2.0,91,0.00,,---,0.00,VWS V14.01,2013-12-17 00:30:00,
2013-12-16 19:31:00,6.2,4.1,30.19,WNW,288,1.0,2.0,91,0.00,,---,0.00,VWS V14.01,2013-12-17 00:31:00,
2013-12-16 19:35:00,6.2,4.1,30.20,WNW,295,1.0,2.0,91,0.00,,---,0.00,VWS V14.01,2013-12-17 00:35:00,
2013-12-16 19:36:00,6.2,4.1,30.20,WNW,295,1.0,2.0,91,0.00,,---,0.00,VWS V14.01,2013-12-17 00:36:00,
2013-12-16 19:40:00,6.2,3.9,30.20,WNW,293,2.0,3.0,90,0.00,,---,0.00,VWS V14.01,2013-12-17 00:40:00,
2013-12-16 19:41:00,6.2,3.9,30.20,WNW,293,2.0,3.0,90,0.00,,---,0.00,VWS V14.01,2013-12-17 00:41:00,
2013-12-16 19:45:00,6.2,3.9,30.19,NW,319,2.0,6.0,90,0.00,,---,0.00,VWS V14.01,2013-12-17 00:45:00,
2013-12-16 19:46:00,6.2,3.9,30.19,NW,319,2.0,6.0,90,0.00,,---,0.00,VWS V14.01,2013-12-17 00:46:00,
2013-12-16 19:50:00,6.3,4.2,30.19,NW,316,2.0,3.0,91,0.00,,---,0.00,VWS V14.01,2013-12-17 00:50:00,
2013-12-16 19:51:00,6.3,4.2,30.19,NW,316,2.0,3.0,91,0.00,,---,0.00,VWS V14.01,2013-12-17 00:51:00,
2013-12-16 19:55:00,5.9,3.4,30.20,NW,316,0.0,2.0,89,0.00,,---,0.00,VWS V14.01,2013-12-17 00:55:00,
2013-12-16 19:56:00,5.9,3.4,30.20,NW,316,0.0,2.0,89,0.00,,---,0.00,VWS V14.01,2013-12-17 00:56:00,
2013-12-16 20:00:00,5.2,2.7,30.20,NW,316,0.0,0.0,89,0.00,,---,0.00,VWS V14.01,2013-12-17 01:00:00,
2013-12-16 20:01:00,5.2,2.7,30.20,NW,316,0.0,0.0,89,0.00,,---,0.00,VWS V14.01,2013-12-17 01:01:00,
2013-12-16 20:05:00,4.6,2.1,30.20,NW,316,0.0,0.0,89,0.00,,---,0.00,VWS V14.01,2013-12-17 01:05:00,
2013-12-16 20:06:00,4.6,2.1,30.20,NW,316,0.0,0.0,89,0.00,,---,0.00,VWS V14.01,2013-12-17 01:06:00,
2013-12-16 20:10:00,4.6,2.3,30.20,NW,316,0.0,0.0,90,0.00,,---,0.00,VWS V14.01,2013-12-17 01:10:00,
2013-12-16 20:11:00,4.6,2.3,30.20,NW,316,0.0,0.0,90,0.00,,---,0.00,VWS V14.01,2013-12-17 01:11:00,
2013-12-16 20:15:00,4.5,2.2,30.20,NW,316,0.0,0.0,90,0.00,,---,0.00,VWS V14.01,2013-12-17 01:15:00,
2013-12-16 20:16:00,4.5,2.2,30.20,NW,316,0.0,0.0,90,0.00,,---,0.00,VWS V14.01,2013-12-17 01:16:00,
2013-12-16 20:20:00,4.3,2.0,30.20,NW,323,1.0,1.0,90,0.00,,---,0.00,VWS V14.01,2013-12-17 01:20:00,
2013-12-16 20:21:00,4.3,2.0,30.20,NW,323,1.0,1.0,90,0.00,,---,0.00,VWS V14.01,2013-12-17 01:21:00,
2013-12-16 20:25:00,4.1,1.8,30.20,NW,314,1.0,2.0,90,0.00,,---,0.00,VWS V14.01,2013-12-17 01:25:00,
2013-12-16 20:26:00,4.1,1.8,30.20,NW,314,1.0,2.0,90,0.00,,---,0.00,VWS V14.01,2013-12-17 01:26:00,
2013-12-16 20:30:00,3.7,1.2,30.20,NW,306,1.0,2.0,89,0.00,,---,0.00,VWS V14.01,2013-12-17 01:30:00,
2013-12-16 20:31:00,3.7,1.2,30.20,NW,306,1.0,2.0,89,0.00,,---,0.00,VWS V14.01,2013-12-17 01:31:00,
2013-12-16 20:35:00,2.9,0.2,30.20,NW,316,1.0,2.0,88,0.00,,---,0.00,VWS V14.01,2013-12-17 01:35:00,
2013-12-16 20:36:00,2.9,0.2,30.20,NW,316,1.0,2.0,88,0.00,,---,0.00,VWS V14.01,2013-12-17 01:36:00,
2013-12-16 20:40:00,3.1,0.8,30.21,NW,316,0.0,2.0,90,0.00,,---,0.00,VWS V14.01,2013-12-17 01:40:00,
2013-12-16 20:41:00,3.1,0.8,30.21,NW,316,0.0,2.0,90,0.00,,---,0.00,VWS V14.01,2013-12-17 01:41:00,
2013-12-16 20:45:00,3.0,0.7,30.21,NW,316,0.0,0.0,90,0.00,,---,0.00,VWS V14.01,2013-12-17 01:45:00,
2013-12-16 20:46:00,3.0,0.7,30.21,NW,316,0.0,0.0,90,0.00,,---,0.00,VWS V14.01,2013-12-17 01:46:00,
2013-12-16 20:50:00,2.7,0.2,30.21,East,83,1.0,1.0,89,0.00,,---,0.00,VWS V14.01,2013-12-17 01:50:00,
2013-12-16 20:51:00,2.7,0.2,30.21,East,83,1.0,1.0,89,0.00,,---,0.00,VWS V14.01,2013-12-17 01:51:00,
2013-12-16 20:55:00,3.0,0.7,30.21,East,82,0.0,1.0,90,0.00,,---,0.00,VWS V14.01,2013-12-17 01:55:00,
2013-12-16 20:56:00,3.0,0.7,30.21,East,82,0.0,1.0,90,0.00,,---,0.00,VWS V14.01,2013-12-17 01:56:00,
2013-12-16 21:00:00,3.5,1.5,30.21,East,86,0.0,1.0,91,0.00,,---,0.00,VWS V14.01,2013-12-17 02:00:00,
2013-12-16 21:01:00,3.5,1.5,30.21,East,86,0.0,1.0,91,0.00,,---,0.00,VWS V14.01,2013-12-17 02:01:00,
2013-12-16 21:05:00,3.9,1.9,30.21,North,351,1.0,1.0,91,0.00,,---,0.00,VWS V14.01,2013-12-17 02:05:00,
2013-12-16 21:06:00,3.9,1.9,30.21,North,351,1.0,1.0,91,0.00,,---,0.00,VWS V14.01,2013-12-17 02:06:00,
2013-12-16 21:10:00,3.9,1.9,30.21,North,352,0.0,1.0,91,0.00,,---,0.00,VWS V14.01,2013-12-17 02:10:00,
2013-12-16 21:11:00,3.9,1.9,30.21,North,352,0.0,1.0,91,0.00,,---,0.00,VWS V14.01,2013-12-17 02:11:00,
2013-12-16 21:15:00,3.5,1.2,30.22,North,352,0.0,0.0,90,0.00,,---,0.00,VWS V14.01,2013-12-17 02:15:00,
2013-12-16 21:16:00,3.5,1.2,30.22,North,352,0.0,0.0,90,0.00,,---,0.00,VWS V14.01,2013-12-17 02:16:00,
2013-12-16 21:20:00,3.0,0.5,30.22,North,352,0.0,0.0,89,0.00,,---,0.00,VWS V14.01,2013-12-17 02:20:00,
2013-12-16 21:21:00,3.0,0.5,30.22,North,352,0.0,0.0,89,0.00,,---,0.00,VWS V14.01,2013-12-17 02:21:00,
2013-12-16 21:25:00,2.6,0.1,30.21,North,352,0.0,0.0,89,0.00,,---,0.00,VWS V14.01,2013-12-17 02:25:00,
2013-12-16 21:26:00,2.6,0.1,30.21,North,352,0.0,0.0,89,0.00,,---,0.00,VWS V14.01,2013-12-17 02:26:00,
2013-12-16 21:30:00,2.8,0.5,30.21,North,359,0.0,0.0,90,0.00,,---,0.00,VWS V14.01,2013-12-17 02:30:00,
2013-12-16 21:31:00,2.8,0.5,30.21,North,359,0.0,0.0,90,0.00,,---,0.00,VWS V14.01,2013-12-17 02:31:00,
2013-12-16 21:35:00,2.7,0.4,30.21,North,359,0.0,0.0,90,0.00,,---,0.00,VWS V14.01,2013-12-17 02:35:00,
2013-12-16 21:36:00,2.7,0.4,30.21,North,359,0.0,0.0,90,0.00,,---,0.00,VWS V14.01,2013-12-17 02:36:00,
2013-12-16 21:40:00,2.4,0.1,30.21,North,360,0.0,0.0,90,0.00,,---,0.00,VWS V14.01,2013-12-17 02:40:00,
2013-12-16 21:41:00,2.4,0.1,30.21,North,360,0.0,0.0,90,0.00,,---,0.00,VWS V14.01,2013-12-17 02:41:00,
2013-12-16 21:45:00,2.2,-0.1,30.21,North,359,0.0,0.0,90,0.00,,---,0.00,VWS V14.01,2013-12-17 02:45:00,
2013-12-16 21:46:00,2.2,-0.1,30.21,North,359,0.0,0.0,90,0.00,,---,0.00,VWS V14.01,2013-12-17 02:46:00,
2013-12-16 21:50:00,2.1,-0.2,30.21,North,360,0.0,0.0,90,0.00,,---,0.00,VWS V14.01,2013-12-17 02:50:00,
2013-12-16 21:51:00,2.1,-0.2,30.21,North,360,0.0,0.0,90,0.00,,---,0.00,VWS V14.01,2013-12-17 02:51:00,
2013-12-16 21:55:00,2.1,-0.2,30.21,North,360,0.0,0.0,90,0.00,,---,0.00,VWS V14.01,2013-12-17 02:55:00,
2013-12-16 21:56:00,2.1,-0.2,30.21,North,360,0.0,0.0,90,0.00,,---,0.00,VWS V14.01,2013-12-17 02:56:00,
2013-12-16 22:00:00,2.0,-0.2,30.21,North,359,0.0,0.0,90,0.00,,---,0.00,VWS V14.01,2013-12-17 03:00:00,
2013-12-16 22:01:00,2.0,-0.2,30.21,North,359,0.0,0.0,90,0.00,,---,0.00,VWS V14.01,2013-12-17 03:01:00,
2013-12-16 22:05:00,1.4,-1.1,30.21,North,360,0.0,0.0,89,0.00,,---,0.00,VWS V14.01,2013-12-17 03:05:00,
2013-12-16 22:06:00,1.4,-1.1,30.21,North,360,0.0,0.0,89,0.00,,---,0.00,VWS V14.01,2013-12-17 03:06:00,
2013-12-16 22:10:00,1.1,-1.4,30.22,North,359,0.0,1.0,89,0.00,,---,0.00,VWS V14.01,2013-12-17 03:10:00,
2013-12-16 22:11:00,1.1,-1.4,30.22,North,359,0.0,1.0,89,0.00,,---,0.00,VWS V14.01,2013-12-17 03:11:00,
2013-12-16 22:15:00,0.8,-1.7,30.22,ENE,61,0.0,0.0,89,0.00,,---,0.00,VWS V14.01,2013-12-17 03:15:00,
2013-12-16 22:16:00,0.8,-1.7,30.22,ENE,61,0.0,0.0,89,0.00,,---,0.00,VWS V14.01,2013-12-17 03:16:00,
2013-12-16 22:20:00,1.0,-1.2,30.22,ENE,78,1.0,1.0,90,0.00,,---,0.00,VWS V14.01,2013-12-17 03:20:00,
2013-12-16 22:21:00,1.0,-1.2,30.22,ENE,78,1.0,1.0,90,0.00,,---,0.00,VWS V14.01,2013-12-17 03:21:00,
2013-12-16 22:25:00,0.8,-1.7,30.22,East,98,0.0,1.0,89,0.00,,---,0.00,VWS V14.01,2013-12-17 03:25:00,
2013-12-16 22:26:00,0.8,-1.7,30.22,East,98,0.0,1.0,89,0.00,,---,0.00,VWS V14.01,2013-12-17 03:26:00,
2013-12-16 22:30:00,1.2,-1.0,30.22,East,98,0.0,0.0,90,0.00,,---,0.00,VWS V14.01,2013-12-17 03:30:00,
2013-12-16 22:31:00,1.2,-1.0,30.22,East,98,0.0,0.0,90,0.00,,---,0.00,VWS V14.01,2013-12-17 03:31:00,
2013-12-16 22:35:00,1.7,-0.3,30.22,East,98,0.0,0.0,91,0.00,,---,0.00,VWS V14.01,2013-12-17 03:35:00,
2013-12-16 22:36:00,1.7,-0.3,30.22,East,98,0.0,0.0,91,0.00,,---,0.00,VWS V14.01,2013-12-17 03:36:00,
2013-12-16 22:40:00,1.7,-0.6,30.22,NNW,348,0.0,0.0,90,0.00,,---,0.00,VWS V14.01,2013-12-17 03:40:00,
2013-12-16 22:41:00,1.7,-0.6,30.22,NNW,348,0.0,0.0,90,0.00,,---,0.00,VWS V14.01,2013-12-17 03:41:00,
2013-12-16 22:45:00,1.4,-1.1,30.22,NNW,348,0.0,0.0,89,0.00,,---,0.00,VWS V14.01,2013-12-17 03:45:00,
2013-12-16 22:46:00,1.4,-1.1,30.22,NNW,348,0.0,0.0,89,0.00,,---,0.00,VWS V14.01,2013-12-17 03:46:00,
2013-12-16 22:50:00,1.1,-1.4,30.23,North,349,0.0,0.0,89,0.00,,---,0.00,VWS V14.01,2013-12-17 03:50:00,
2013-12-16 22:55:00,1.1,-1.1,30.23,North,349,0.0,0.0,90,0.00,,---,0.00,VWS V14.01,2013-12-17 03:55:00,
2013-12-16 22:56:00,1.1,-1.1,30.23,North,349,0.0,0.0,90,0.00,,---,0.00,VWS V14.01,2013-12-17 03:56:00,
2013-12-16 23:00:00,0.7,-1.8,30.22,NNW,348,0.0,0.0,89,0.00,,---,0.00,VWS V14.01,2013-12-17 04:00:00,
2013-12-16 23:01:00,0.7,-1.8,30.22,NNW,348,0.0,0.0,89,0.00,,---,0.00,VWS V14.01,2013-12-17 04:01:00,
2013-12-16 23:05:00,0.1,-2.7,30.22,North,349,0.0,0.0,88,0.00,,---,0.00,VWS V14.01,2013-12-17 04:05:00,
2013-12-16 23:06:00,0.1,-2.7,30.22,North,349,0.0,0.0,88,0.00,,---,0.00,VWS V14.01,2013-12-17 04:06:00,
2013-12-16 23:10:00,-0.3,-2.8,30.22,NNW,348,0.0,0.0,89,0.00,,---,0.00,VWS V14.01,2013-12-17 04:10:00,
2013-12-16 23:11:00,-0.3,-2.8,30.22,NNW,348,0.0,0.0,89,0.00,,---,0.00,VWS V14.01,2013-12-17 04:11:00,
2013-12-16 23:15:00,-0.3,-2.5,30.22,NNW,348,0.0,0.0,90,0.00,,---,0.00,VWS V14.01,2013-12-17 04:15:00,
2013-12-16 23:16:00,-0.3,-2.5,30.22,NNW,348,0.0,0.0,90,0.00,,---,0.00,VWS V14.01,2013-12-17 04:16:00,
2013-12-16 23:20:00,-0.3,-2.5,30.22,NNW,348,0.0,0.0,90,0.00,,---,0.00,VWS V14.01,2013-12-17 04:20:00,
2013-12-16 23:21:00,-0.3,-2.5,30.22,NNW,348,0.0,0.0,90,0.00,,---,0.00,VWS V14.01,2013-12-17 04:21:00,
2013-12-16 23:25:00,-0.5,-2.7,30.22,NNW,348,0.0,0.0,90,0.00,,---,0.00,VWS V14.01,2013-12-17 04:25:00,
2013-12-16 23:26:00,-0.5,-2.7,30.22,NNW,348,0.0,0.0,90,0.00,,---,0.00,VWS V14.01,2013-12-17 04:26:00,
2013-12-16 23:30:00,-1.0,-3.5,30.22,NNW,348,0.0,0.0,89,0.00,,---,0.00,VWS V14.01,2013-12-17 04:30:00,
2013-12-16 23:31:00,-1.0,-3.5,30.22,NNW,348,0.0,0.0,89,0.00,,---,0.00,VWS V14.01,2013-12-17 04:31:00,
2013-12-16 23:35:00,-0.9,-3.1,30.22,NW,326,0.0,0.0,90,0.00,,---,0.00,VWS V14.01,2013-12-17 04:35:00,
2013-12-16 23:36:00,-0.9,-3.1,30.22,NW,326,0.0,0.0,90,0.00,,---,0.00,VWS V14.01,2013-12-17 04:36:00,
2013-12-16 23:40:00,-0.8,-3.0,30.22,NW,326,0.0,0.0,90,0.00,,---,0.00,VWS V14.01,2013-12-17 04:40:00,
2013-12-16 23:41:00,-0.8,-3.0,30.22,NW,326,0.0,0.0,90,0.00,,---,0.00,VWS V14.01,2013-12-17 04:41:00,
2013-12-16 23:45:00,-0.8,-3.0,30.21,NW,326,0.0,0.0,90,0.00,,---,0.00,VWS V14.01,2013-12-17 04:45:00,
2013-12-16 23:46:00,-0.8,-3.0,30.21,NW,326,0.0,0.0,90,0.00,,---,0.00,VWS V14.01,2013-12-17 04:46:00,
2013-12-16 23:50:00,-0.7,-2.9,30.21,NW,326,0.0,0.0,90,0.00,,---,0.00,VWS V14.01,2013-12-17 04:50:00,
2013-12-16 23:51:00,-0.7,-2.9,30.21,NW,326,0.0,0.0,90,0.00,,---,0.00,VWS V14.01,2013-12-17 04:51:00,
2013-12-16 23:55:00,-0.3,-2.3,30.21,NW,326,0.0,0.0,91,0.00,,---,0.00,VWS V14.01,2013-12-17 04:55:00,
2013-12-16 23:56:00,-0.3,-2.3,30.21,NW,326,0.0,0.0,91,0.00,,---,0.00,VWS V14.01,2013-12-17 04:56:00,